| time (UTC) | temp F | wind direction | speed MPH | gust MPH | rain 1hr in | rain 24hr in | rain mn in | humidity % | barometer mb |
| 20260509002114 | 47 | 0.0 | 0.0 | 0.00 | 0.00 | 0.00 | 96 | 1022.2 | |
| 20260509001112 | 47 | 0.0 | 0.0 | 0.00 | 0.00 | 0.00 | 96 | 1022.1 | |
| 20260509000110 | 47 | 0.0 | 0.0 | 0.00 | 0.00 | 0.00 | 96 | 1022.1 | |
| 20260508235108 | 47 | 0.0 | 0.0 | 0.00 | 0.00 | 0.00 | 95 | 1022.0 | |
| 20260508234106 | 47 | 0.0 | 0.0 | 0.00 | 0.00 | 0.00 | 95 | 1022.1 | |
| 20260508233104 | 47 | 0.0 | 0.0 | 0.00 | 0.00 | 0.00 | 95 | 1022.0 | |
| 20260508232122 | 48 | 0.0 | 0.0 | 0.00 | 0.00 | 0.00 | 95 | 1022.1 | |
| 20260508231100 | 48 | 0.0 | 0.0 | 0.00 | 0.00 | 0.00 | 94 | 1022.2 | |
| 20260508230058 | 48 | 0.0 | 0.0 | 0.00 | 0.00 | 0.00 | 94 | 1022.2 | |
| 20260508225056 | 48 | 0.0 | 0.0 | 0.00 | 0.00 | 0.00 | 94 | 1022.2 | |
| 20260508224054 | 48 | 0.0 | 0.0 | 0.00 | 0.00 | 0.00 | 94 | 1022.2 | |
| 20260508223052 | 48 | 0.0 | 0.0 | 0.00 | 0.00 | 0.00 | 93 | 1022.2 | |
| 20260508222050 | 48 | 0.0 | 0.0 | 0.00 | 0.00 | 0.00 | 93 | 1022.3 | |
| 20260508221048 | 49 | 0.0 | 0.0 | 0.00 | 0.00 | 0.00 | 93 | 1022.2 | |
| 20260508220046 | 49 | 0.0 | 0.0 | 0.00 | 0.00 | 0.00 | 92 | 1022.1 | |
| 20260508215104 | 49 | 0.0 | 0.0 | 0.00 | 0.00 | 0.00 | 92 | 1022.0 | |
| 20260508214042 | 49 | 0.0 | 0.0 | 0.00 | 0.00 | 0.00 | 92 | 1022.1 | |
| 20260508213040 | 49 | 0.0 | 0.0 | 0.00 | 0.00 | 0.00 | 92 | 1022.2 | |
| 20260508211056 | 49 | 0.0 | 0.0 | 0.00 | 0.00 | 0.00 | 91 | 1022.3 | |
| 20260508210034 | 49 | 0.0 | 0.0 | 0.00 | 0.00 | 0.00 | 91 | 1022.2 | |
| 20260508205052 | 49 | 0.0 | 0.0 | 0.00 | 0.00 | 0.00 | 91 | 1022.3 | |
| 20260508204050 | 49 | 0.0 | 0.0 | 0.00 | 0.00 | 0.00 | 91 | 1022.2 | |
| 20260508203028 | 50 | 0.0 | 0.0 | 0.00 | 0.00 | 0.00 | 90 | 1022.2 | |
| 20260508202026 | 50 | 0.0 | 0.0 | 0.00 | 0.00 | 0.00 | 89 | 1022.2 | |
| 20260508201024 | 50 | 0.0 | 0.0 | 0.00 | 0.00 | 0.00 | 88 | 1022.1 | |
| 20260508200021 | 50 | 0.0 | 0.0 | 0.00 | 0.00 | 0.00 | 87 | 1022.1 | |
| 20260508195019 | 50 | 0.0 | 0.0 | 0.00 | 0.00 | 0.00 | 87 | 1022.1 | |
| 20260508194018 | 50 | 0.0 | 0.0 | 0.00 | 0.00 | 0.00 | 87 | 1022.0 | |
| 20260508193015 | 50 | 0.0 | 0.0 | 0.00 | 0.00 | 0.00 | 87 | 1022.0 | |
| 20260508192113 | 50 | 0.0 | 2.0 | 0.00 | 0.00 | 0.00 | 87 | 1021.9 | |
| 20260508191152 | 50 | 0.0 | 0.0 | 0.00 | 0.00 | 0.00 | 86 | 1021.9 | |
| 20260508190110 | 51 | 0.0 | 0.0 | 0.00 | 0.00 | 0.00 | 85 | 1021.9 | |
| 20260508185107 | 51 | 65 | 1.0 | 4.0 | 0.00 | 0.00 | 0.00 | 84 | 1021.7 |
| 20260508184105 | 51 | 72 | 1.0 | 2.0 | 0.00 | 0.00 | 0.00 | 84 | 1021.6 |
| 20260508183123 | 51 | 75 | 1.0 | 4.0 | 0.00 | 0.00 | 0.00 | 83 | 1021.6 |
| 20260508182142 | 51 | 85 | 1.0 | 4.0 | 0.00 | 0.00 | 0.00 | 84 | 1021.6 |
| 20260508181100 | 51 | 82 | 1.0 | 4.0 | 0.00 | 0.00 | 0.00 | 85 | 1021.7 |
| 20260508180057 | 51 | 90 | 0.0 | 2.0 | 0.00 | 0.00 | 0.00 | 85 | 1021.7 |
| 20260508175055 | 52 | 90 | 0.0 | 4.0 | 0.00 | 0.00 | 0.00 | 84 | 1021.5 |
| 20260508174053 | 52 | 113 | 0.0 | 2.0 | 0.00 | 0.00 | 0.00 | 84 | 1021.5 |
| 20260508173051 | 52 | 109 | 1.0 | 2.0 | 0.00 | 0.00 | 0.00 | 83 | 1021.5 |
| 20260508172049 | 52 | 0.0 | 2.0 | 0.00 | 0.00 | 0.00 | 83 | 1021.5 | |
| 20260508171047 | 52 | 113 | 0.0 | 2.0 | 0.00 | 0.00 | 0.00 | 82 | 1021.5 |
| 20260508170045 | 52 | 113 | 0.0 | 2.0 | 0.00 | 0.00 | 0.00 | 81 | 1021.4 |
| 20260508165043 | 52 | 0.0 | 2.0 | 0.00 | 0.00 | 0.00 | 81 | 1021.4 | |
| 20260508164041 | 52 | 0.0 | 2.0 | 0.00 | 0.00 | 0.00 | 82 | 1021.5 | |
| 20260508163059 | 53 | 0.0 | 0.0 | 0.00 | 0.00 | 0.00 | 80 | 1021.4 | |
| 20260508162037 | 52 | 0.0 | 0.0 | 0.00 | 0.00 | 0.00 | 81 | 1021.4 | |
| 20260508161035 | 53 | 113 | 0.0 | 2.0 | 0.00 | 0.00 | 0.00 | 81 | 1021.5 |
| 20260508160033 | 53 | 0.0 | 0.0 | 0.00 | 0.00 | 0.00 | 80 | 1021.6 | |
| 20260508155031 | 52 | 113 | 1.0 | 2.0 | 0.00 | 0.00 | 0.00 | 79 | 1021.5 |
| 20260508154029 | 53 | 128 | 0.0 | 4.0 | 0.00 | 0.00 | 0.00 | 79 | 1021.5 |
| 20260508153027 | 53 | 113 | 0.0 | 2.0 | 0.00 | 0.00 | 0.00 | 78 | 1021.5 |
| 20260508152025 | 53 | 105 | 2.0 | 4.0 | 0.00 | 0.00 | 0.00 | 78 | 1021.6 |
| 20260508151023 | 53 | 115 | 1.0 | 4.0 | 0.00 | 0.01 | 0.00 | 78 | 1021.6 |
| 20260508150021 | 53 | 105 | 2.0 | 4.0 | 0.00 | 0.01 | 0.00 | 77 | 1021.6 |
| 20260508145019 | 53 | 90 | 1.0 | 4.0 | 0.00 | 0.01 | 0.00 | 78 | 1021.5 |
| 20260508144017 | 53 | 108 | 1.0 | 4.0 | 0.00 | 0.01 | 0.00 | 77 | 1021.6 |
| 20260508143015 | 53 | 84 | 1.0 | 4.0 | 0.00 | 0.01 | 0.00 | 76 | 1021.5 |
| 20260508142133 | 54 | 0.0 | 2.0 | 0.00 | 0.01 | 0.00 | 78 | 1021.7 | |
| 20260508141111 | 53 | 85 | 1.0 | 4.0 | 0.00 | 0.01 | 0.00 | 77 | 1021.7 |
| 20260508140109 | 54 | 101 | 0.0 | 2.0 | 0.00 | 0.01 | 0.00 | 78 | 1021.7 |
| 20260508135107 | 53 | 90 | 1.0 | 2.0 | 0.00 | 0.01 | 0.00 | 79 | 1021.6 |
| 20260508134105 | 53 | 105 | 2.0 | 4.0 | 0.00 | 0.01 | 0.00 | 79 | 1021.6 |
| 20260508133122 | 53 | 107 | 1.0 | 4.0 | 0.00 | 0.01 | 0.00 | 80 | 1021.6 |
| 20260508132100 | 53 | 113 | 1.0 | 4.0 | 0.00 | 0.01 | 0.00 | 80 | 1021.7 |
| 20260508131059 | 53 | 100 | 1.0 | 2.0 | 0.00 | 0.01 | 0.00 | 81 | 1021.7 |
| 20260508130117 | 53 | 0.0 | 2.0 | 0.00 | 0.01 | 0.00 | 81 | 1021.8 | |
| 20260508125115 | 53 | 93 | 1.0 | 4.0 | 0.00 | 0.01 | 0.00 | 78 | 1021.9 |
| 20260508124052 | 53 | 73 | 0.0 | 4.0 | 0.00 | 0.01 | 0.00 | 81 | 1022.0 |
| 20260508123050 | 53 | 68 | 0.0 | 2.0 | 0.00 | 0.01 | 0.00 | 82 | 1021.9 |
| 20260508122109 | 53 | 90 | 1.0 | 2.0 | 0.00 | 0.01 | 0.00 | 80 | 1021.8 |
| 20260508121046 | 53 | 68 | 1.0 | 4.0 | 0.00 | 0.01 | 0.00 | 80 | 1021.8 |
| 20260508120045 | 53 | 0.0 | 2.0 | 0.00 | 0.01 | 0.00 | 81 | 1021.8 | |
| 20260508115042 | 53 | 0.0 | 2.0 | 0.00 | 0.01 | 0.00 | 81 | 1021.9 | |
| 20260508114040 | 52 | 113 | 0.0 | 2.0 | 0.00 | 0.01 | 0.00 | 80 | 1021.9 |
| 20260508113038 | 53 | 113 | 0.0 | 2.0 | 0.00 | 0.01 | 0.00 | 81 | 1021.9 |
| 20260508112036 | 52 | 0.0 | 2.0 | 0.00 | 0.01 | 0.00 | 82 | 1021.9 | |
| 20260508111034 | 52 | 90 | 0.0 | 2.0 | 0.00 | 0.01 | 0.00 | 82 | 1021.9 |
| 20260508110052 | 52 | 0.0 | 2.0 | 0.00 | 0.01 | 0.00 | 84 | 1021.8 | |
| 20260508105030 | 51 | 113 | 0.0 | 2.0 | 0.00 | 0.01 | 0.00 | 83 | 1021.8 |
| 20260508104028 | 51 | 113 | 1.0 | 4.0 | 0.00 | 0.01 | 0.00 | 83 | 1021.8 |
| 20260508103026 | 51 | 0.0 | 2.0 | 0.00 | 0.01 | 0.00 | 83 | 1021.7 | |
| 20260508102024 | 52 | 248 | 1.0 | 2.0 | 0.00 | 0.01 | 0.00 | 82 | 1021.7 |
| 20260508101022 | 52 | 113 | 0.0 | 2.0 | 0.00 | 0.01 | 0.00 | 82 | 1021.8 |
| 20260508100020 | 51 | 113 | 0.0 | 2.0 | 0.00 | 0.01 | 0.00 | 81 | 1021.7 |
| 20260508095018 | 52 | 158 | 0.0 | 2.0 | 0.00 | 0.02 | 0.00 | 84 | 1021.8 |
| 20260508094016 | 52 | 0.0 | 2.0 | 0.00 | 0.02 | 0.00 | 84 | 1021.9 | |
| 20260508093114 | 51 | 113 | 1.0 | 2.0 | 0.00 | 0.02 | 0.00 | 83 | 1021.8 |
| 20260508092112 | 51 | 129 | 0.0 | 2.0 | 0.00 | 0.02 | 0.00 | 85 | 1021.8 |
| 20260508091130 | 51 | 113 | 0.0 | 2.0 | 0.00 | 0.02 | 0.00 | 86 | 1021.8 |
| 20260508090108 | 51 | 126 | 1.0 | 2.0 | 0.00 | 0.02 | 0.00 | 86 | 1021.7 |
| 20260508085106 | 51 | 68 | 0.0 | 2.0 | 0.00 | 0.02 | 0.00 | 88 | 1021.7 |
| 20260508084104 | 51 | 66 | 0.0 | 2.0 | 0.00 | 0.02 | 0.00 | 87 | 1021.7 |
| 20260508083102 | 51 | 113 | 0.0 | 2.0 | 0.00 | 0.02 | 0.00 | 86 | 1021.7 |
| 20260508082100 | 51 | 139 | 0.0 | 2.0 | 0.00 | 0.02 | 0.00 | 86 | 1021.7 |
| 20260508081058 | 50 | 113 | 0.0 | 2.0 | 0.00 | 0.02 | 0.00 | 86 | 1021.6 |
| 20260508080056 | 50 | 248 | 0.0 | 2.0 | 0.00 | 0.02 | 0.00 | 87 | 1021.6 |
| 20260508075054 | 51 | 124 | 0.0 | 2.0 | 0.00 | 0.02 | 0.00 | 89 | 1021.5 |
| 20260508074052 | 50 | 113 | 0.0 | 2.0 | 0.00 | 0.02 | 0.00 | 91 | 1021.6 |
| 20260508073050 | 49 | 259 | 0.0 | 2.0 | 0.00 | 0.02 | 0.00 | 91 | 1021.4 |
| 20260508072048 | 49 | 0.0 | 0.0 | 0.00 | 0.02 | 0.00 | 92 | 1021.3 | |
| 20260508071046 | 49 | 0.0 | 0.0 | 0.00 | 0.02 | 0.00 | 93 | 1021.3 | |
| 20260508070044 | 48 | 0.0 | 0.0 | 0.00 | 0.02 | 0.00 | 95 | 1021.2 | |
| 20260508065042 | 47 | 0.0 | 0.0 | 0.00 | 0.02 | 0.00 | 97 | 1021.0 | |
| 20260508064040 | 48 | 0.0 | 0.0 | 0.00 | 0.02 | 0.00 | 98 | 1021.0 | |
| 20260508063038 | 47 | 0.0 | 0.0 | 0.00 | 0.02 | 0.00 | 98 | 1020.9 | |
| 20260508062036 | 47 | 0.0 | 0.0 | 0.00 | 0.02 | 0.00 | 99 | 1020.8 | |
| 20260508061034 | 47 | 0.0 | 0.0 | 0.00 | 0.02 | 0.00 | 99 | 1020.7 | |
| 20260508060052 | 46 | 0.0 | 0.0 | 0.00 | 0.02 | 0.00 | 99 | 1020.6 | |
| 20260508055120 | 46 | 0.0 | 0.0 | 0.00 | 0.02 | 0.00 | 99 | 1020.5 | |
| 20260508054058 | 46 | 0.0 | 0.0 | 0.00 | 0.02 | 0.00 | 99 | 1020.5 | |
| 20260508053056 | 46 | 0.0 | 0.0 | 0.00 | 0.02 | 0.00 | 99 | 1020.5 | |
| 20260508052053 | 47 | 0.0 | 2.0 | 0.00 | 0.02 | 0.00 | 99 | 1020.5 | |
| 20260508051052 | 46 | 0.0 | 0.0 | 0.00 | 0.02 | 0.00 | 99 | 1020.4 | |
| 20260508050049 | 45 | 0.0 | 0.0 | 0.00 | 0.02 | 0.00 | 99 | 1020.3 | |
| 20260508045108 | 45 | 0.0 | 0.0 | 0.00 | 0.02 | 0.00 | 99 | 1020.2 | |
| 20260508044045 | 45 | 0.0 | 0.0 | 0.00 | 0.02 | 0.00 | 99 | 1020.1 | |
| 20260508043043 | 45 | 0.0 | 0.0 | 0.00 | 0.02 | 0.00 | 99 | 1020.0 | |
| 20260508042042 | 45 | 0.0 | 2.0 | 0.00 | 0.04 | 0.00 | 99 | 1020.0 | |
| 20260508041040 | 45 | 0.0 | 0.0 | 0.00 | 0.04 | 0.00 | 99 | 1019.9 | |
| 20260508040058 | 45 | 0.0 | 0.0 | 0.00 | 0.04 | 0.00 | 99 | 1020.0 | |
| 20260508035036 | 45 | 0.0 | 0.0 | 0.00 | 0.04 | 0.00 | 99 | 1019.8 | |
| 20260508034033 | 45 | 0.0 | 0.0 | 0.00 | 0.04 | 0.00 | 99 | 1019.9 | |
| 20260508033031 | 45 | 0.0 | 0.0 | 0.00 | 0.04 | 0.00 | 99 | 1019.8 | |
| 20260508032029 | 45 | 0.0 | 0.0 | 0.00 | 0.04 | 0.00 | 99 | 1019.8 | |
| 20260508031027 | 45 | 0.0 | 0.0 | 0.00 | 0.04 | 0.00 | 99 | 1019.9 | |
| 20260508030105 | 45 | 0.0 | 0.0 | 0.00 | 0.04 | 0.00 | 99 | 1019.9 | |
| 20260508025023 | 45 | 0.0 | 0.0 | 0.00 | 0.04 | 0.00 | 99 | 1019.9 | |
| 20260508024021 | 45 | 0.0 | 0.0 | 0.00 | 0.04 | 0.00 | 99 | 1020.2 | |
| 20260508023019 | 45 | 0.0 | 0.0 | 0.00 | 0.04 | 0.00 | 99 | 1020.1 | |
| 20260508022017 | 46 | 0.0 | 0.0 | 0.00 | 0.04 | 0.00 | 99 | 1020.1 | |
| 20260508021015 | 46 | 0.0 | 0.0 | 0.00 | 0.04 | 0.00 | 99 | 1020.1 | |
| 20260508020113 | 46 | 0.0 | 0.0 | 0.00 | 0.04 | 0.00 | 99 | 1020.2 | |
| 20260508015152 | 46 | 0.0 | 0.0 | 0.00 | 0.04 | 0.00 | 99 | 1020.2 | |
| 20260508014109 | 46 | 0.0 | 0.0 | 0.00 | 0.05 | 0.00 | 99 | 1020.2 | |
| 20260508013107 | 46 | 0.0 | 0.0 | 0.00 | 0.05 | 0.00 | 99 | 1020.1 | |
| 20260508012105 | 46 | 0.0 | 2.0 | 0.00 | 0.05 | 0.00 | 99 | 1020.1 | |
| 20260508011103 | 46 | 0.0 | 2.0 | 0.00 | 0.05 | 0.00 | 99 | 1020.0 | |
| 20260508010101 | 46 | 0.0 | 0.0 | 0.00 | 0.05 | 0.00 | 99 | 1020.1 | |
| 20260508005059 | 46 | 0.0 | 0.0 | 0.00 | 0.05 | 0.00 | 99 | 1020.2 | |
| 20260508004057 | 46 | 0.0 | 2.0 | 0.00 | 0.05 | 0.00 | 99 | 1020.0 | |
| 20260508003055 | 46 | 0.0 | 0.0 | 0.00 | 0.05 | 0.00 | 99 | 1020.1 |